Location: Pettit
(39.0209°N, 79.7181°W)
Time: 11:38:50
(UTC+00:00)

ISS - Pass Details

Date: 20 April 2026
Orbit: 414 x 424 km, 51.6° (Epoch: 11 May)

Event Time Altitude Azimuth Distance (km) Brightness Sun altitude
Exits shadow 09:39:36 17° 260° (W) 1,157 -2.1 -10.9°
Maximum altitude 09:41:55 43° 327° (NNW) 602 -3.1 -10.5°
Drops below altitude 10° 09:45:10 10° 40° (NE) 1,505 0.2 -10.0°
Sets 09:47:21 0° 48° (NE) 2,374 1.7 -9.6°
